Flag for Germany Weather past 2 weeks in Moers, North Rhine-Westphalia, Germany

Now
70 °F

Partly sunny.


Feels Like: 70 °F
Forecast: 65 / 82 °F
Wind: 10 mph from North

Location: Duesseldorf

Current Time: Jul 22, 2014 at 12:09:03 PM

Latest Report: Jul 22, 2014 at 11:20 AM


Visibility: N/A

Pressure: 30.04 "Hg

Humidity: 78%

Dew point: 63 °F

Location of MoersLocation

Historic Weather in Moers — Graph

°F

Moers temperature yesterday

Maximum temperature yesterday: 70 °F (at 12:20 AM)
Minimum temperature yesterday: 66 °F (at 8:20 AM)
Average temperature yesterday: 68 °F

Past Weeks' High & Low Weather Summary

 TemperatureHumidityPressure
High93 °F (Jul 19, 3:50 PM)100% (Jul 9, 6:50 AM)30.18 "Hg (Jul 9, 6:50 AM)
Low54 °F (Jul 9, 6:50 AM)23% (Jul 19, 4:50 PM)29.65 "Hg (Jul 9, 3:50 PM)
Average69 °F74%29.93 "Hg
* Reported Jul 7 10:20 AM — Jul 22 10:50 AM, Moers, Weather by CustomWeather, © 2014

Note: Actual official high and low records may vary slightly from our data, if they occured in-between our weather recording intervals... More about our weather records

Advertising

Moers weather history for previous 24 hours

 ConditionsComfort  
Time TempWeatherWind HumidityBarometerVisibility
10:50 AM
Jul 22
70 °FPartly sunny.8 mph78%30.04 "HgN/A
10:20 AM68 °FPartly sunny.8 mph83%30.04 "HgN/A
9:50 AM68 °FPartly sunny.8 mph88%30.04 "HgN/A
9:20 AM68 °FPartly sunny.9 mph83%30.04 "HgN/A
8:50 AM68 °FPartly sunny.8 mph88%30.04 "Hg5 mi
8:20 AM68 °FPartly sunny.8 mph94%30.01 "Hg4 mi
7:50 AM68 °FFog.7 mph94%30.01 "Hg2 mi
7:20 AM68 °FFog.7 mph94%30.01 "Hg2 mi
6:50 AM68 °FFog.6 mph94%30.01 "Hg1 mi
6:20 AM68 °FFog.7 mph94%29.98 "Hg1 mi
5:50 AM68 °FLight rain. Fog.6 mph94%29.98 "Hg2 mi
5:20 AM68 °FFog.2 mph94%29.98 "Hg2 mi
4:50 AM68 °FFog.5 mph94%29.98 "Hg2 mi
4:20 AM68 °FFog.6 mph94%29.98 "Hg2 mi
3:50 AM68 °FFog.5 mph94%29.98 "Hg2 mi
3:20 AM68 °FFog.5 mph94%29.98 "Hg2 mi
2:50 AM68 °FDrizzle. Fog.6 mph94%29.98 "Hg2 mi
2:20 AM68 °FLight rain. Low clouds.5 mph94%29.98 "Hg2 mi
1:50 AM68 °FFog.6 mph94%29.98 "Hg2 mi
1:20 AM68 °FFog.6 mph94%29.98 "Hg2 mi
12:50 AM68 °FFog.3 mph94%29.98 "Hg2 mi
12:20 AM68 °FFog.3 mph94%29.98 "Hg2 mi
11:50 PM
Jul 21
66 °FFog.5 mph100%29.98 "Hg2 mi
11:20 PM66 °FFog.5 mph100%29.98 "Hg2 mi
10:50 PM66 °FFog.7 mph94%29.95 "Hg2 mi
10:20 PM66 °FFog.5 mph94%29.98 "Hg2 mi
9:50 PM66 °FFog.7 mph94%29.95 "Hg2 mi
9:20 PM66 °FDrizzle. Fog.8 mph94%29.95 "Hg3 mi
8:50 PM68 °FDrizzle. Fog.10 mph94%29.95 "Hg3 mi
8:20 PM68 °FDrizzle. Broken clouds.8 mph94%29.95 "Hg4 mi
7:50 PM68 °FDrizzle. Broken clouds.7 mph94%29.95 "Hg4 mi
7:20 PM68 °FPartly sunny.7 mph94%29.95 "Hg4 mi
6:50 PM68 °FBroken clouds.8 mph94%29.92 "Hg4 mi
6:20 PM68 °FDrizzle. Fog.7 mph94%29.92 "Hg3 mi
5:50 PM68 °FDrizzle. Fog.7 mph94%29.92 "Hg3 mi
5:20 PM68 °FDrizzle. Partly sunny.8 mph94%29.92 "Hg4 mi
4:50 PM68 °FDrizzle. Partly sunny.8 mph94%29.92 "Hg4 mi
4:20 PM68 °FDrizzle. Broken clouds.7 mph94%29.92 "Hg4 mi
3:50 PM68 °FDrizzle. Broken clouds.8 mph88%29.92 "Hg4 mi
3:20 PM68 °FBroken clouds.7 mph88%29.92 "HgN/A
2:50 PM68 °FLight rain. Partly sunny.9 mph83%29.92 "HgN/A
2:20 PM70 °FLight rain. Broken clouds.9 mph83%29.92 "HgN/A
1:50 PM70 °FLight rain. Broken clouds.8 mph78%29.92 "HgN/A
1:20 PM70 °FLight rain. Broken clouds.6 mph83%29.92 "HgN/A
12:50 PM70 °FLight rain. Broken clouds.5 mph83%29.89 "HgN/A
12:20 PM70 °FLight rain. Broken clouds.6 mph83%29.89 "HgN/A
Weather by CustomWeather, © 2014

See weather overviewHow to use our weather pages